Location: Vinland
(47.7731°N, 122.6974°W)
Time: 19:16:32
(UTC+00:00)

Vanguard 1 Rocket - Pass Details

Date: 27 March 2023
Orbit: 655 x 4220 km, 34.3° (Epoch: 05 June)

Event Time Altitude Azimuth Distance (km) Brightness Sun altitude
Rises 08:31:06 0° 253° (WSW) 8,190 12.1 -39.6°
Reaches altitude 10° 08:37:32 10° 249° (WSW) 6,819 11.6 -39.5°
Enters shadow 08:41:53 18° 245° (WSW) 5,842 11.2 -39.4°
Exits shadow 09:06:41 - 115° (ESE) 3,921 10.5 -38.5°
Sets 09:09:02 0° 109° (ESE) 4,521 11.0 -38.4°
